map of MCG home
MCG - Airport
Location
City:  McGrath, Alaska, United States
Name:McGrath Airport
ICAO:PAMC
IATA:MCG
FAA LID:MCG

Details
Type:Airport (Airfield)
Use:Public/Civil
Latitude:6257'10"N (62.952784)
Longitude:15536'25"W (-155.607047)
Datum:WGS 1984
Elevation:342 ft (104 m)
Variation:13.89E (WMM2015v2 magnetic declination)
-0.35 annual change
Runways:2
Longest:5936 × 100 ft (1809 × 30.5 m), paved

Time
Time Zone:UTC-9 (DST-8)
Local Time:

Weather
METAR:PAMC 041353Z AUTO 00000KT 1/2SM FZFG OVC002 M11/M12 A3007 RMK AO2 SLP191 I1000 T11111122 TSNO
TAF:PAMC 041148Z 0412/0512 VRB04KT 1/4SM FZFG VV003
FM041500 VRB03KT 1/2SM FZFG BKN003 BKN007 OVC015
FM041800 VRB03KT 2SM BR SCT003 BKN007 OVC015
FM042100 VRB03KT P6SM FEW015 SCT050 BKN100

Related Locations
Nearby:
Farthest:NZSP: 10554 mi / 16985 km
Amundsen-Scott South Pole Station [Jack F. Paulus Skiway], AQ

Find:

   beyond  
but within

Other Information
Maps:
NOTAMs:
Links:
Sources:

  
  • flag of United States
  • flag of Alaska
  

Sectional Chart

Flight Planning
at skyvector.com

Satellite Image

Google Maps Satellite view

 

Copyright © 2004-2019 Karl L. Swartz. All rights reserved.
The Great Circle Mapper name and logo are trademarks of the Great Circle Mapper.
All other trademarks mentioned herein belong to their respective owners.
Please see credits for attibutions and further copyright information.

  Follow gcmap on Facebook Follow gcmap on Twitter GCmap on LinkedIn

hCard Microformat

Geo Microformat